Location: Newark
(51.6850°N, 0.3180°W)
Time: 01:41:11
(UTC+00:00)

ISS - Visible Passes

Search period start: 19 October 2019 00:00
Search period end: 29 October 2019 00:00
Orbit: 411 x 421 km, 51.6° (Epoch: 19 October)

Date Brightness Start Highest point End Pass type
(mag) Time Alt. Az. Time Alt. Az. Time Alt. Az.
25 Oct -0.9 05:36:22 10° S 05:38:34 16° SE 05:40:47 10° E visible
26 Oct -0.7 04:49:10 10° SSE 04:50:12 11° SE 04:51:15 10° ESE visible
27 Oct -2.1 05:34:45 10° SW 05:37:46 31° SSE 05:40:47 10° E visible
28 Oct -1.6 04:47:38 16° S 04:49:18 22° SE 04:51:59 10° E visible
